Location: Castelbiague
(43.0361°N, 0.9246°E)
Time: 02:54:09
(UTC+00:00)

Uosat 12 SS-18 rocket - Visible Passes

Search period start: 23 October 2021 00:00
Search period end: 02 November 2021 00:00
Orbit: 581 x 1403 km, 64.6° (Epoch: 22 October)

Date Brightness Start Highest point End Pass type
(mag) Time Alt. Az. Time Alt. Az. Time Alt. Az.
23 Oct 7.1 18:17:14 10° WNW 18:20:42 16° NNW 18:24:36 10° NNE visible
23 Oct 7.5 20:10:05 10° NNW 20:12:05 11° N 20:13:21 11° NNE visible
23 Oct 7.8 21:58:00 10° NNW 21:58:20 11° NNW 21:58:20 11° NNW visible
24 Oct 7.4 18:50:15 10° NW 18:52:41 12° NNW 18:55:17 10° NNE visible
24 Oct 7.5 20:40:58 10° NNW 20:43:06 13° N 20:43:06 13° N visible
25 Oct 6.9 17:29:45 10° WNW 17:33:38 19° NNW 17:38:04 10° NNE visible
25 Oct 7.4 19:23:00 10° NNW 19:24:51 11° N 19:26:46 10° NNE visible
25 Oct 7.6 21:11:28 10° NNW 21:12:52 14° N 21:12:52 14° N visible
26 Oct 7.2 18:02:37 10° NW 18:05:30 14° NNW 18:08:40 10° NNE visible
26 Oct 7.4 19:54:19 10° NNW 19:57:02 12° NNE 19:57:39 12° NNE visible
26 Oct 7.7 21:41:54 10° NNW 21:42:38 13° NNW 21:42:38 13° NNW visible
27 Oct 7.4 18:35:37 10° NNW 18:37:37 11° N 18:39:43 10° NNE visible
27 Oct 7.3 20:24:56 10° NNW 20:27:26 15° N 20:27:26 15° N visible
27 Oct 7.9 22:12:23 10° NNW 22:12:25 10° NNW 22:12:25 10° NNW visible
28 Oct 7.1 17:15:01 10° WNW 17:18:22 15° NNW 17:22:06 10° NNE visible
28 Oct 7.4 19:07:33 10° NNW 19:09:49 12° N 19:12:13 10° NNE visible
28 Oct 7.4 20:55:23 10° NNW 20:57:13 16° N 20:57:13 16° N visible
29 Oct 7.3 17:48:04 10° NNW 17:50:23 12° N 17:52:53 10° NNE visible
29 Oct 7.2 19:38:20 10° NNW 19:41:58 14° NNE 19:42:02 14° NNE visible
29 Oct 7.6 21:25:50 10° NNW 21:27:01 15° NNW 21:27:01 15° NNW visible
30 Oct 7.3 18:20:34 10° NNW 18:22:35 11° N 18:24:42 10° NNE visible
30 Oct 7.2 20:08:51 10° NNW 20:11:51 18° N 20:11:51 18° N visible
30 Oct 7.8 21:56:22 10° NNW 21:56:50 12° NNW 21:56:50 12° NNW visible
31 Oct 7.2 18:51:43 10° NNW 18:54:47 13° NNE 18:56:42 12° NNE visible
31 Oct 7.2 20:39:17 10° NNW 20:41:41 19° N 20:41:41 19° N visible
01 Nov 7.3 17:33:19 10° NNW 17:35:21 11° N 17:37:28 10° NNE visible
01 Nov 7.1 19:22:18 10° NNW 19:26:33 17° NNE 19:26:33 17° NNE visible
01 Nov 7.4 21:09:47 10° NNW 21:11:33 18° NNW 21:11:33 18° NNW visible
